Regional Weather Roundup
Issued by NWS Albany, NY

Home | Current Version | Previous Version | Text Only | Print | Product List | Glossary On
Versions: 1 2 3 4 5 6 7 8 9 10 11 12 13 14 15 16 17 18 19 20 21 22 23 24 25 26 27 28 29 30 31 32 33 34 35 36 37 38 39 40 41 42 43 44 45 46 47 48 49 50
000
ASUS41 KALY 062210
RWRALY

NEW YORK STATE HOURLY WEATHER ROUNDUP
NATIONAL WEATHER SERVICE ALBANY NY
500 PM EST FRI MAR 06 2015

NOTE: "FAIR" INDICATES FEW OR NO CLOUDS BELOW 12,000 FEET WITH NO
SIGNIFICANT WEATHER AND/OR NO OBSTRUCTIONS TO VISIBILITY.

NYZ032-033-038>043-046>054-057>066-NYZ062>081-062300-
EAST


CITY           SKY/WX    TMP DP  RH WIND       PRES   REMARKS
ALBANY         PTCLDY    24   0  35 S7        30.36F WCI  16
GLENS FALLS    CLEAR     23  -4  30 S12       30.32F WCI  12
POUGHKEEPSIE   CLEAR     27  -5  24 VRB5      30.39F WCI  22
NEWBURGH       CLEAR     25   1  36 SW7       30.38F WCI  17
MONTGOMERY     CLEAR     26   0  32 S9        30.36F WCI  17
WHITE PLAINS   CLEAR     23   1  38 S5        30.38F WCI  17
ISLIP          PTCLDY    23   4  44 S8        30.41F WCI  14
NEW YORK CITY  PTCLDY    26   5  40 CALM      30.42F
CENTRAL PARK   CLEAR     26   4  38 VRB3      30.43F
$$

NYZ005>009-017-018-044>046-055-056-062300-
CENTRAL


CITY           SKY/WX    TMP DP  RH WIND       PRES   REMARKS
FULTON         PTCLDY    19   1  45 S9        30.33F WCI   8
SYRACUSE       MOCLDY    21   0  39 SW7       30.34F WCI  12
ROME           CLEAR     18   2  49 CALM      30.36F
ELMIRA         SUNNY     26  -1  31 SW5       30.29F WCI  20
BINGHAMTON     PTCLDY    19  -4  36 SW7       30.25F WCI  10
MONTICELLO     CLEAR     21   1  42 W8        30.30S WCI  12
$$

NYZ026>034-041>043-062300-
NORTH


CITY           SKY/WX    TMP DP  RH WIND       PRES   REMARKS
WATERTOWN      CLEAR     19   3  49 SW10      30.32F WCI   7
FORT DRUM      NOT AVBL
MASSENA        CLEAR     19   4  51 S20G30    30.28F WCI   3
SARANAC LAKE   CLEAR     17  -3  41 SW12      30.15F WCI   4
PLATTSBURGH    CLEAR     22   0  38 S10       30.26F WCI  11
$$

NYZ001>004-010>016-019>021-062300-
WEST


CITY           SKY/WX    TMP DP  RH WIND       PRES   REMARKS
NIAGARA FALLS  CLOUDY    19   8  62 SW14      30.30F WCI   6
BUFFALO        PTSUNNY   18   8  65 SW15      30.30F WCI   4
DUNKIRK        MOSUNNY   19  11  70 W8        30.33F WCI   9
JAMESTOWN      MOSUNNY   19   1  45 SW12G18   30.24F WCI   7
WELLSVILLE     FAIR      21  -4  33 SW7       30.21F WCI  12
ROCHESTER      CLOUDY    22   1  40 SW8       30.31F WCI  12
PENN YAN       MOSUNNY   24  -2  32 SW6       30.28F WCI  17
$$

             KEY
       WCI = WIND CHILL INDEX
       VSB = VISIBILITY
       HX  = HEAT INDEX
$$



USA.gov is the U.S. government's official web portal to all federal, state and local government web resources and services.